Regional Weather Roundup
Issued by NWS

Home | Current Version | Previous Version | Graphics & Text | Print | Product List | Glossary On
Versions: 1 2 3 4 5 6 7 8 9 10 11 12 13 14 15 16 17 18 19 20 21 22 23 24 25 26 27 28 29 30 31 32 33 34 35 36 37 38 39 40 41 42 43 44 45 46 47 48 49 50
000
ASUS45 KBOU 191807
RWRCO

WEATHER ROUNDUP FOR COLORADO
NATIONAL WEATHER SERVICE DENVER/BOULDER CO
1100 AM MST FRI DEC 19 2014

NOTE: "FAIR" INDICATES FEW OR NO CLOUDS BELOW 12000 FEET WITH NO
SIGNIFICANT WEATHER AND/OR OBSTRUCTIONS TO VISIBILITY.

COZ001>005-013-030-031-191900-
...NORTHWEST COLORADO...

CITY           SKY/WX    TMP DP  RH WIND       PRES   REMARKS
CRAIG          CLOUDY    29  24  82 E3        30.25S
HAYDEN         CLOUDY    21  18  86 CALM      30.23F
MEEKER         CLOUDY    26  21  81 CALM      30.26R
MOUNT WERNER   NOT AVBL
STEAMBOAT SPGS CLOUDY    23  18  82 CALM      30.21F
WALDEN         SUNNY     23  19  86 S16G22    30.13S WCI  10
$$

COZ006>008-011-191900-
...WEST CENTRAL VALLEYS...

CITY           SKY/WX    TMP DP  RH WIND       PRES   REMARKS
GRAND JUNCTION PTSUNNY   34  29  82 E5        30.28F WCI  30
MONTROSE       SUNNY     36  25  64 SE5       30.28F
EAGLE          MOSUNNY   28  23  80 CALM      30.26F
RIFLE          CLOUDY    33  27  78 CALM      30.27S
DELTA          PTSUNNY   37  28  70 CALM      30.29F
NUCLA          SUNNY     34  27  75 CALM      30.31F
$$

COZ017>023-064>068-191900-
...SOUTHWEST COLORADO...

CITY           SKY/WX    TMP DP  RH WIND       PRES   REMARKS
DURANGO        MOSUNNY   28  21  75 CALM      30.23S
CORTEZ         SUNNY     32  21  64 CALM      30.26F
PAGOSA SPRINGS SUNNY     28  17  64 SW3       30.21S
TELLURIDE      SUNNY     21  12  68 CALM      30.22
WOLF CREEK PAS SUNNY     16  14  93 MISG      30.14S
$$

COZ009-010-012-014-032>034-037-058>063-191900-
...CENTRAL COLORADO...

CITY           SKY/WX    TMP DP  RH WIND       PRES   REMARKS
ASPEN          PTSUNNY   25  17  72 CALM      30.20F
BUENA VISTA    SUNNY     33   5  31 W14G20    30.14S WCI  23
COPPER MTN     CLOUDY    14   9  79 W17G24    30.12F WCI  -3
BERTHOUD PASS  CLOUDY     5   0  78 MISG      30.07R
COTTONWOOD PAS SUNNY     28   1  31 W20G30    30.11F WCI  15
GUNNISON       SUNNY     21  12  68 CALM      30.26S
KREMMLING      PTSUNNY  N/A N/A N/A CALM      30.22F
LEADVILLE      CLOUDY    20   7  57 NW6       30.14S WCI  12
MONARCH PASS   CLOUDY     9   5  85 MISG      30.20S
SALIDA         SUNNY     34  13  42 SW14G21   30.22F WCI  24
SUNLIGHT       LGT SNOW N/A N/A N/A CALM      30.19F
WILKERSON PASS MOSUNNY   18   3  53 NW9G17    30.09S WCI   6
$$

COZ069>075-191900-
...SAN LUIS VALLEY/SANGRE DE CRISTO MOUNTAINS...

CITY           SKY/WX    TMP DP  RH WIND       PRES   REMARKS
ALAMOSA        SUNNY     23  16  74 CALM      30.19F
LA VETA PASS   SUNNY     21  16  79 S13G25    30.09S WCI   9
SAGUACHE       CLOUDY    21  18  86 SE7       30.19F WCI  13
$$

COZ035-036-038>040-191900-
...NORTHERN COLORADO FRONT RANGE...

CITY           SKY/WX    TMP DP  RH WIND       PRES   REMARKS
DENVER INTL AP MOSUNNY   41  22  46 S10       30.08F
DMNS CITY PARK   N/A     42  13  31 S5        30.07F
AURORA         MOSUNNY   39  15  38 SW5       30.09F
FRONT RANGE AP NOT AVBL
ERIE MUNI ARPT   N/A     43  15  31 S7        30.07F
BOULDER MUN AP SUNNY     43  21  42 SE5       30.06F
CENTENNIAL     MOSUNNY   38  14  37 S6        30.08F
BROOMFIELD     NOT AVBL
FORT COLLINS   SUNNY     39  27  60 S6        30.08F
LONGMONT       SUNNY     45  26  46 CALM      30.08F
$$

COZ041-046-047-076>085-087-088-191900-
...PIKES PEAK/PALMER DIVIDE AND SOUTHERN FOOTHILLS...

CITY           SKY/WX    TMP DP  RH WIND       PRES   REMARKS
COLO. SPRINGS  MOSUNNY   41  13  31 CALM      30.09F
A. F. ACADEMY  SUNNY     38  12  34 NE6       30.08F
ELLICOTT       NOT AVBL
FALCON         MOSUNNY   40  15  35 NW5       30.10S
FORT CARSON    SUNNY     40  16  36 VRB2      30.08F
LIMON          SUNNY     39  28  64 CALM      30.09F
MONUMENT HILL  SUNNY     32  12  43 CALM      30.08F
TRINIDAD       SUNNY     41  20  43 NW5       30.11F
$$

COZ042>045-048>051-090-091-191900-
...NORTHEAST COLORADO...

CITY           SKY/WX    TMP DP  RH WIND       PRES   REMARKS
GREELEY ARPT   SUNNY     37  25  60 W5        30.08F
AKRON          SUNNY     30  24  78 SW8       30.08F WCI  22
BURLINGTON     MOSUNNY   39  29  67 W5        30.11F
WRAY           SUNNY     33  28  79 W5        30.10F WCI  29
STERLING       SUNNY     25  21  86 SW12      30.09F WCI  14
HOLYOKE        NOT AVBL
FORT MORGAN    SUNNY     26  20  76 W9        30.09F WCI  17
$$

COZ086-089-092>099-191900-
...SOUTHEAST COLORADO...

CITY           SKY/WX    TMP DP  RH WIND       PRES   REMARKS
PUEBLO         NOT AVBL
LA JUNTA       SUNNY     39  29  67 W7        30.12F
LAMAR          SUNNY     39  31  72 VRB3      30.12F
SPRINGFIELD      N/A     45  26  47 CALM      30.10F
$$



USA.gov is the U.S. government's official web portal to all federal, state and local government web resources and services.